Location: Unspecified
(0.0000°N, 0.0000°E)
Time: 20:32:13
(UTC+02:00)

Hubble Space Telescope - Visible Passes

Search period start: 30 April 2017 00:00
Search period end: 10 May 2017 00:00
Orbit: 538 x 542 km, 28.5° (Epoch: 28 April)

Date Brightness Start Highest point End Pass type
(mag) Time Alt. Az. Time Alt. Az. Time Alt. Az.
30 Apr 1.4 21:16:27 10° WNW 21:20:28 47° SSW 21:21:29 38° SSE visible
01 May 2.3 07:30:39 10° SSW 07:34:18 30° SSE 07:37:57 10° E visible
01 May 2.0 21:06:41 10° W 21:10:26 33° SSW 21:12:16 22° SSE visible
02 May 1.7 07:20:20 10° SW 07:24:17 42° SSE 07:28:12 10° ENE visible
02 May 2.6 20:57:02 10° W 21:00:25 24° SSW 21:03:03 14° SSE visible
03 May 1.1 07:10:42 13° SW 07:14:15 63° SSE 07:18:20 10° ENE visible
03 May 3.0 20:47:37 10° WSW 20:50:25 17° SSW 20:53:14 10° SSE visible
04 May 0.7 07:01:29 21° WSW 07:04:13 89° NNW 07:08:21 10° ENE visible
04 May 3.3 20:38:32 10° SW 20:40:27 13° SSW 20:42:22 10° S visible
05 May 0.9 06:52:14 29° W 06:54:11 60° NNW 06:58:15 10° NE visible
06 May 1.4 06:42:58 33° WNW 06:44:09 41° NNW 06:48:03 10° NE visible
07 May 1.9 06:33:39 28° NW 06:34:07 29° NNW 06:37:43 10° NNE visible
08 May 2.5 06:24:17 21° NNW 06:24:17 21° NNW 06:27:16 10° NNE visible
09 May 3.1 06:14:52 15° NNW 06:14:52 15° NNW 06:16:37 10° N visible
